179P/Jedicke (2007)

Japanese version
Home page
Total 6,336 html files since Dec. 4, 1995
Updated on April 4, 2008

---------------------------------------------------------------------

* Profile

Designation 179P/2006 U2
Recovery Date October 22, 2006
Magnitude 20.7 mag
Recoverer J. V. Scotti (Spacewatch II, Kitt Peak)

* Orbital Elements

                    Epoch = 2007 Dec.  6.0 TT
     T = 2007 Dec.  2.9575 TT         Peri. = 295.4577
     e = 0.307871                     Node  = 115.8517  2000.0
     q = 4.086887 AU                  Incl. =  19.8746
       a =  5.904807 AU    n = 0.0686903    P =  14.35 years

* Finding Charts

* Magnitudes Graph

        m1 = 3.0 + 5 log d + 20.0 log r

---------------------------------------------------------------------

The orbital elements are calculated by Dr. Brian G. Marsden and printed on IAUC 8764.
The charts are made with StellaNavigator Ver.2.0 for Windows (AstroArts / ASCII).
The magnitudes graphs are made with Comet for Windows.

---------------------------------------------------------------------

Copyright(C) 1995-2008 Seiichi Yoshida (comet@aerith.net). All rights reserved.